Time,TemperatureF,DewpointF,PressureIn,WindDirection,WindDirectionDegrees,WindSpeedMPH,WindSpeedGustMPH,Humidity,HourlyPrecipIn,Conditions,Clouds,dailyrainin,SoftwareType,DateUTC
2013-01-18 06:05:00,55.0,17.8,29.75,NE,39,4.0,4.0,23,0.00,,,0.00,Wunderground v.1.15,2013-01-18 14:05:00,
2013-01-18 06:10:00,54.9,17.7,29.75,NE,38,3.0,4.0,23,0.00,,,0.00,Wunderground v.1.15,2013-01-18 14:10:00,
2013-01-18 06:16:00,54.9,16.7,29.75,ENE,58,4.0,4.0,22,0.00,,,0.00,Wunderground v.1.15,2013-01-18 14:16:00,
2013-01-18 06:21:00,55.1,16.9,29.75,NE,35,5.0,10.0,22,0.00,,,0.00,Wunderground v.1.15,2013-01-18 14:21:00,
2013-01-18 06:27:00,55.4,17.1,29.75,NNE,29,5.0,6.0,22,0.00,,,0.00,Wunderground v.1.15,2013-01-18 14:27:00,
2013-01-18 06:33:00,55.6,17.3,29.75,ENE,70,5.0,7.0,22,0.00,,,0.00,Wunderground v.1.15,2013-01-18 14:33:00,
2013-01-18 06:39:00,55.6,17.3,29.75,NNE,28,5.0,9.0,22,0.00,,,0.00,Wunderground v.1.15,2013-01-18 14:39:00,
2013-01-18 06:44:00,55.6,17.3,29.75,NNE,26,4.0,9.0,22,0.00,,,0.00,Wunderground v.1.15,2013-01-18 14:44:00,
2013-01-18 06:50:00,55.5,17.2,29.75,NE,53,4.0,8.0,22,0.00,,,0.00,Wunderground v.1.15,2013-01-18 14:50:00,
2013-01-18 06:56:00,55.3,17.0,29.75,NE,47,5.0,5.0,22,0.00,,,0.00,Wunderground v.1.15,2013-01-18 14:56:00,
2013-01-18 07:01:00,55.2,17.0,29.75,NE,40,5.0,7.0,22,0.00,,,0.00,Wunderground v.1.15,2013-01-18 15:01:00,
2013-01-18 07:07:00,55.2,17.0,29.75,NE,40,5.0,7.0,22,0.00,,,0.00,Wunderground v.1.15,2013-01-18 15:07:00,
2013-01-18 11:29:00,73.1,17.4,29.74,ESE,117,11.0,11.0,12,0.00,,,0.00,Wunderground v.1.15,2013-01-18 19:29:00,
2013-01-18 11:34:00,73.1,17.4,29.74,East,87,10.0,17.0,12,0.00,,,0.00,Wunderground v.1.15,2013-01-18 19:34:00,
2013-01-18 11:39:00,73.2,17.5,29.74,East,88,9.0,10.0,12,0.00,,,0.00,Wunderground v.1.15,2013-01-18 19:39:00,
2013-01-18 11:45:00,73.4,17.6,29.73,ENE,78,9.0,10.0,12,0.00,,,0.00,Wunderground v.1.15,2013-01-18 19:45:00,
2013-01-18 11:50:00,73.6,17.8,29.73,ESE,115,10.0,11.0,12,0.00,,,0.00,Wunderground v.1.15,2013-01-18 19:50:00,
2013-01-18 12:31:00,74.5,18.5,29.71,ENE,69,9.0,9.0,12,0.00,,,0.00,Wunderground v.1.15,2013-01-18 20:31:00,
2013-01-18 12:36:00,74.6,16.6,29.71,ENE,72,10.0,11.0,11,0.00,,,0.00,Wunderground v.1.15,2013-01-18 20:36:00,
2013-01-18 12:41:00,74.4,16.4,29.70,ENE,69,11.0,11.0,11,0.00,,,0.00,Wunderground v.1.15,2013-01-18 20:41:00,
2013-01-18 12:47:00,74.2,16.3,29.70,ENE,63,11.0,14.0,11,0.00,,,0.00,Wunderground v.1.15,2013-01-18 20:47:00,
2013-01-18 12:53:00,74.4,16.4,29.70,ENE,66,10.0,15.0,11,0.00,,,0.00,Wunderground v.1.15,2013-01-18 20:53:00,
2013-01-18 12:58:00,74.5,16.5,29.70,NE,50,10.0,15.0,11,0.00,,,0.00,Wunderground v.1.15,2013-01-18 20:58:00,
2013-01-18 13:03:00,74.6,18.6,29.70,ENE,67,9.0,10.0,12,0.00,,,0.00,Wunderground v.1.15,2013-01-18 21:03:00,
2013-01-18 13:09:00,74.6,16.6,29.69,East,92,10.0,17.0,11,0.00,,,0.00,Wunderground v.1.15,2013-01-18 21:09:00,
2013-01-18 13:15:00,74.6,16.6,29.69,ENE,63,11.0,21.0,11,0.00,,,0.00,Wunderground v.1.15,2013-01-18 21:15:00,
2013-01-18 16:12:00,73.2,15.5,29.69,NE,34,7.0,21.0,11,0.00,,,0.00,Wunderground v.1.15,2013-01-19 00:12:00,
2013-01-18 16:17:00,73.0,15.3,29.69,ENE,65,7.0,21.0,11,0.00,,,0.00,Wunderground v.1.15,2013-01-19 00:17:00,
2013-01-18 16:22:00,72.6,17.0,29.69,SE,135,5.0,8.0,12,0.00,,,0.00,Wunderground v.1.15,2013-01-19 00:22:00,
2013-01-18 16:28:00,71.8,16.4,29.69,East,84,4.0,8.0,12,0.00,,,0.00,Wunderground v.1.15,2013-01-19 00:28:00,
2013-01-18 16:33:00,71.4,16.1,29.70,ENE,74,4.0,6.0,12,0.00,,,0.00,Wunderground v.1.15,2013-01-19 00:33:00,
2013-01-18 16:38:00,70.9,17.5,29.70,NE,54,3.0,6.0,13,0.00,,,0.00,Wunderground v.1.15,2013-01-19 00:38:00,
2013-01-18 16:44:00,70.3,17.1,29.70,ENE,72,2.0,3.0,13,0.00,,,0.00,Wunderground v.1.15,2013-01-19 00:44:00,
2013-01-18 16:50:00,69.7,16.6,29.70,East,84,2.0,5.0,13,0.00,,,0.00,Wunderground v.1.15,2013-01-19 00:50:00,
2013-01-18 16:55:00,69.1,16.1,29.70,ENE,61,3.0,5.0,13,0.00,,,0.00,Wunderground v.1.15,2013-01-19 00:55:00,
2013-01-18 17:01:00,68.4,17.3,29.70,NNE,32,2.0,3.0,14,0.00,,,0.00,Wunderground v.1.15,2013-01-19 01:01:00,
2013-01-18 17:06:00,67.7,18.3,29.70,NE,42,2.0,4.0,15,0.00,,,0.00,Wunderground v.1.15,2013-01-19 01:06:00,
2013-01-18 17:12:00,66.8,17.6,29.70,NNE,12,2.0,3.0,15,0.00,,,0.00,Wunderground v.1.15,2013-01-19 01:12:00,
2013-01-18 17:17:00,65.9,18.4,29.70,NE,47,2.0,4.0,16,0.00,,,0.00,Wunderground v.1.15,2013-01-19 01:17:00,
2013-01-18 17:23:00,65.0,19.1,29.71,NE,54,2.0,3.0,17,0.00,,,0.00,Wunderground v.1.15,2013-01-19 01:23:00,
2013-01-18 17:29:00,64.2,18.4,29.71,NE,51,3.0,5.0,17,0.00,,,0.00,Wunderground v.1.15,2013-01-19 01:29:00,
2013-01-18 17:33:00,63.8,18.1,29.71,ENE,57,3.0,4.0,17,0.00,,,0.00,Wunderground v.1.15,2013-01-19 01:33:00,
2013-01-18 17:39:00,63.5,17.8,29.71,NE,48,3.0,4.0,17,0.00,,,0.00,Wunderground v.1.15,2013-01-19 01:39:00,
2013-01-18 17:46:00,62.6,19.7,29.71,NE,55,2.0,3.0,19,0.00,,,0.00,Wunderground v.1.15,2013-01-19 01:46:00,
2013-01-18 17:52:00,61.9,20.3,29.72,ENE,74,2.0,3.0,20,0.00,,,0.00,Wunderground v.1.15,2013-01-19 01:52:00,
2013-01-18 17:58:00,61.2,18.6,29.72,NE,54,2.0,3.0,19,0.00,,,0.00,Wunderground v.1.15,2013-01-19 01:58:00,
2013-01-18 19:44:00,57.5,17.8,29.73,ENE,74,2.0,3.0,21,0.00,,,0.00,Wunderground v.1.15,2013-01-19 03:44:00,
2013-01-18 19:50:00,57.4,17.7,29.73,East,90,2.0,4.0,21,0.00,,,0.00,Wunderground v.1.15,2013-01-19 03:50:00,
2013-01-18 19:55:00,57.5,17.8,29.73,ENE,75,3.0,3.0,21,0.00,,,0.00,Wunderground v.1.15,2013-01-19 03:55:00,
2013-01-18 20:44:00,57.2,17.6,29.74,NNE,26,4.0,4.0,21,0.00,,,0.00,Wunderground v.1.15,2013-01-19 04:44:00,
2013-01-18 20:49:00,57.1,18.6,29.74,ENE,63,4.0,4.0,22,0.00,,,0.00,Wunderground v.1.15,2013-01-19 04:49:00,
2013-01-18 20:55:00,56.7,18.2,29.74,ENE,71,4.0,7.0,22,0.00,,,0.00,Wunderground v.1.15,2013-01-19 04:55:00,